No identification:  Note closing 0.0022 AU to the Earth

 

2004 XB45                                                                   

Epoch 2005 Jan. 30.0 TT = JDT 2453400.5                 MPC      

M 357.40860              (2000.0)            P               Q

n   0.51027312     Peri.   85.99684     -0.98628414     -0.15563364

a   1.5509612      Node    85.04346     +0.12087323     -0.90782774

e   0.5817161      Incl.    3.16301     +0.11239780     -0.38939307

P   1.93           H   26.3           G   0.15           U   7

Residuals in seconds of arc 

041213 691  0.1-  0.0     041215 649  0.2+  0.2-    041216 300(29.8+  3.5-) 

041213 691  0.1-  0.2-    041215 649  0.2-  0.3-    041216 300  1.5+  0.7-  

041213 691  0.2+  0.1-    041215 649  0.2-  0.1-    041216 300 (0.7+  2.9-) 

041213 246  0.3-  0.1+    041215 649  0.1-  0.1-    041216 300 (2.4-  1.1+) 

041213 246  0.2-  0.1+    041215 J95  0.1+  0.2+    041216 300 (2.8+  0.5+) 

041213 246  0.3-  0.0     041215 J95  0.6+  0.1+    041216 300  0.1+  0.1+  

041214 291  0.4+  0.3+    041215 J95  0.2+  0.1+    041216 300 (5.2+  0.5-) 

041214 291  0.0   0.1-    041215 198  0.6+  0.3+    041216 300  0.3+  0.4-  

041214 291  0.5+  0.5+    041215 198  0.2-  0.2+    041216 300 (8.3-  4.4+) 

041214 H06  0.5-  0.7-    041215 198  0.4+  0.2+    041216 300  0.6-  0.4+  

041214 H06  0.3+  0.7-    041215 198  0.1+  0.2+    041216 300 (3.6-  0.7+) 

041214 H06  0.8-  0.5+    041215 198  0.3+  0.2+    041216 300  0.2-  0.5+  

041214 413  0.8+  0.7-    041216 246  1.2-  0.1-    041216 300  0.9+  0.7-  

041214 413  0.1+  0.9-    041216 246  1.7-  0.2+    041216 300 (2.5-  0.6+) 

041214 413  0.6+  0.8-    041216 246  0.2+  0.4+    041216 300  1.3-  0.1-  

041214 587  0.1+  0.1-    041216 300 (3.7+  0.1-)   041216 300  0.5+  0.0   

041214 587  0.4-  0.9+    041216 300  1.0-  0.5+                            

041214 587  0.2+  0.6+    041216 300 (2.5+  0.2-)                           

 

 

 

NAKANO

         **** Don't distribute anyone except personal use only ****

                (C) Copyright 2005 OAA/ComputingSection

write mail from CFAD0::NAKANO on 2005-01-02 04:28:39(JST).

 



߂܂B